TimeCDT,TemperatureF,Dew PointF,Humidity,Sea Level PressureIn,VisibilityMPH,Wind Direction,Wind SpeedMPH,Gust SpeedMPH,PrecipitationIn,Events,Conditions,WindDirDegrees,DateUTC
12:15 AM,61.7,57.0,85,29.89,10.0,NE,8.1,-,N/A,,Overcast,40,2012-10-03 05:15:00
12:35 AM,61.7,57.4,86,29.89,10.0,NNE,4.6,-,N/A,,Overcast,20,2012-10-03 05:35:00
12:55 AM,61.7,57.6,86,29.89,10.0,NNE,4.6,-,N/A,,Overcast,30,2012-10-03 05:55:00
1:15 AM,61.7,57.2,85,29.89,10.0,NE,3.5,-,N/A,,Overcast,50,2012-10-03 06:15:00
1:35 AM,62.1,55.4,79,29.89,10.0,East,5.8,-,N/A,,Overcast,80,2012-10-03 06:35:00
1:55 AM,61.9,55.4,79,29.89,10.0,NE,5.8,-,N/A,,Overcast,50,2012-10-03 06:55:00
2:15 AM,61.7,55.8,81,29.88,10.0,ENE,8.1,-,N/A,,Overcast,70,2012-10-03 07:15:00
2:35 AM,61.0,56.5,85,29.88,10.0,ENE,6.9,-,N/A,,Overcast,70,2012-10-03 07:35:00
2:55 AM,60.8,56.8,87,29.88,7.0,ENE,4.6,-,N/A,,Overcast,70,2012-10-03 07:55:00
3:15 AM,60.4,57.2,89,29.89,7.0,East,4.6,-,N/A,,Overcast,80,2012-10-03 08:15:00
3:35 AM,60.3,57.2,90,29.89,7.0,East,5.8,-,N/A,,Overcast,90,2012-10-03 08:35:00
3:55 AM,60.1,57.0,90,29.89,7.0,East,3.5,-,N/A,,Overcast,100,2012-10-03 08:55:00
4:15 AM,60.3,57.0,89,29.89,7.0,East,3.5,-,N/A,,Overcast,80,2012-10-03 09:15:00
4:35 AM,60.1,56.8,89,29.90,7.0,East,3.5,-,N/A,,Overcast,100,2012-10-03 09:35:00
4:55 AM,59.9,57.0,90,29.91,7.0,SE,4.6,-,N/A,,Overcast,130,2012-10-03 09:55:00
5:15 AM,59.9,57.2,91,29.91,7.0,SSE,4.6,-,N/A,,Overcast,150,2012-10-03 10:15:00
5:35 AM,59.9,57.0,90,29.91,7.0,SSE,6.9,-,N/A,,Overcast,160,2012-10-03 10:35:00
5:55 AM,59.7,56.5,89,29.92,7.0,South,6.9,-,N/A,,Overcast,170,2012-10-03 10:55:00
6:15 AM,59.4,55.8,88,29.92,10.0,South,8.1,-,N/A,,Overcast,170,2012-10-03 11:15:00
6:35 AM,59.2,55.6,88,29.93,10.0,SSE,8.1,-,N/A,,Overcast,160,2012-10-03 11:35:00
6:55 AM,59.0,55.4,88,29.93,10.0,South,8.1,-,N/A,,Overcast,170,2012-10-03 11:55:00
7:15 AM,58.6,55.4,89,29.93,7.0,South,6.9,-,N/A,,Overcast,180,2012-10-03 12:15:00
7:35 AM,58.6,55.4,89,29.94,7.0,South,4.6,-,N/A,,Overcast,180,2012-10-03 12:35:00
7:55 AM,59.0,55.6,88,29.94,7.0,South,5.8,-,N/A,,Overcast,170,2012-10-03 12:55:00
8:15 AM,59.4,55.9,88,29.95,7.0,South,5.8,-,N/A,,Overcast,180,2012-10-03 13:15:00
8:35 AM,59.7,55.8,87,29.95,10.0,South,5.8,-,N/A,,Overcast,180,2012-10-03 13:35:00
8:55 AM,59.9,55.6,86,29.96,10.0,South,4.6,-,N/A,,Overcast,180,2012-10-03 13:55:00
9:15 AM,59.5,55.4,86,29.95,7.0,South,6.9,-,N/A,,Overcast,170,2012-10-03 14:15:00
9:35 AM,59.4,55.4,87,29.96,10.0,SSW,5.8,-,N/A,,Overcast,200,2012-10-03 14:35:00
9:55 AM,59.9,55.2,84,29.96,10.0,South,5.8,-,N/A,,Overcast,180,2012-10-03 14:55:00
10:15 AM,59.9,55.6,86,29.96,10.0,South,5.8,-,N/A,,Overcast,190,2012-10-03 15:15:00
10:55 AM,61.2,56.3,84,29.96,10.0,SSE,6.9,-,N/A,,Overcast,160,2012-10-03 15:55:00
11:15 AM,60.3,55.8,85,29.97,7.0,SSE,5.8,-,N/A,,Overcast,160,2012-10-03 16:15:00
11:35 AM,60.4,56.3,86,29.96,7.0,SSE,6.9,-,N/A,,Overcast,150,2012-10-03 16:35:00
11:55 AM,60.4,56.1,86,29.97,10.0,South,6.9,-,N/A,,Overcast,170,2012-10-03 16:55:00
12:15 PM,60.6,56.3,86,29.97,10.0,South,6.9,-,N/A,,Overcast,190,2012-10-03 17:15:00
12:35 PM,61.7,56.3,82,29.96,10.0,SSW,6.9,-,N/A,,Overcast,200,2012-10-03 17:35:00
12:55 PM,62.8,56.5,80,29.95,10.0,South,4.6,-,N/A,,Overcast,190,2012-10-03 17:55:00
1:15 PM,62.4,56.3,80,29.95,10.0,South,3.5,-,N/A,,Overcast,170,2012-10-03 18:15:00
1:35 PM,62.6,55.9,79,29.94,10.0,WSW,3.5,-,N/A,,Overcast,250,2012-10-03 18:35:00
1:55 PM,64.4,57.2,77,29.94,10.0,SW,4.6,-,N/A,,Overcast,230,2012-10-03 18:55:00
2:15 PM,65.1,55.9,72,29.94,10.0,South,6.9,-,N/A,,Overcast,190,2012-10-03 19:15:00
2:35 PM,65.5,56.5,73,29.94,10.0,South,6.9,-,N/A,,Overcast,180,2012-10-03 19:35:00
2:55 PM,64.9,55.9,73,29.94,10.0,SSW,4.6,-,N/A,,Overcast,200,2012-10-03 19:55:00
3:15 PM,65.1,55.9,72,29.94,10.0,South,6.9,-,N/A,,Overcast,170,2012-10-03 20:15:00
3:35 PM,65.7,55.9,71,29.95,10.0,SSE,8.1,-,N/A,,Overcast,160,2012-10-03 20:35:00
3:55 PM,64.2,57.0,77,29.95,10.0,South,11.5,-,N/A,,Overcast,180,2012-10-03 20:55:00
4:15 PM,63.5,57.6,81,29.96,10.0,SSW,10.4,-,N/A,,Overcast,200,2012-10-03 21:15:00
4:35 PM,63.5,57.6,81,29.96,7.0,SW,12.7,-,N/A,,Overcast,220,2012-10-03 21:35:00
4:55 PM,62.2,57.6,85,29.96,7.0,SW,10.4,-,N/A,Rain,Light Rain,220,2012-10-03 21:55:00
5:15 PM,62.1,57.6,85,29.97,5.0,SW,11.5,-,N/A,,Overcast,220,2012-10-03 22:15:00
5:35 PM,61.7,57.6,86,29.98,7.0,SW,10.4,-,N/A,,Overcast,220,2012-10-03 22:35:00
5:55 PM,61.7,57.2,85,29.98,7.0,SW,8.1,-,N/A,,Overcast,220,2012-10-03 22:55:00
6:15 PM,61.3,56.8,85,29.99,7.0,SSW,8.1,-,N/A,,Overcast,210,2012-10-03 23:15:00
6:35 PM,61.3,56.8,85,29.99,7.0,SW,9.2,-,N/A,,Overcast,220,2012-10-03 23:35:00
6:55 PM,61.0,56.3,85,29.99,10.0,SW,6.9,-,N/A,,Overcast,220,2012-10-03 23:55:00
7:15 PM,61.2,56.3,84,30.00,10.0,SW,6.9,-,N/A,,Overcast,220,2012-10-04 00:15:00
7:35 PM,60.8,56.3,85,30.00,10.0,SSW,5.8,-,N/A,,Overcast,210,2012-10-04 00:35:00
7:55 PM,60.8,56.3,85,30.00,10.0,SSW,3.5,-,N/A,,Overcast,200,2012-10-04 00:55:00
8:15 PM,59.9,56.3,88,30.01,10.0,South,4.6,-,N/A,,Overcast,190,2012-10-04 01:15:00
8:35 PM,59.7,56.3,88,30.01,7.0,South,5.8,-,N/A,Rain,Light Rain,180,2012-10-04 01:35:00
8:55 PM,59.2,56.5,91,30.02,10.0,South,4.6,-,N/A,,Overcast,180,2012-10-04 01:55:00
9:15 PM,59.0,56.3,91,30.02,10.0,South,4.6,-,N/A,,Overcast,180,2012-10-04 02:15:00
9:35 PM,58.1,55.6,91,30.02,7.0,South,4.6,-,N/A,,Overcast,190,2012-10-04 02:35:00
9:55 PM,59.0,56.3,91,30.03,7.0,SSW,4.6,-,N/A,,Overcast,210,2012-10-04 02:55:00
10:15 PM,59.0,56.3,91,30.03,7.0,SSW,3.5,-,N/A,,Overcast,210,2012-10-04 03:15:00
10:35 PM,59.0,56.3,91,30.03,7.0,SSW,4.6,-,N/A,,Overcast,200,2012-10-04 03:35:00
10:55 PM,59.0,55.4,88,30.04,7.0,South,4.6,-,N/A,,Overcast,190,2012-10-04 03:55:00
11:15 PM,58.5,55.9,91,30.04,7.0,SSW,3.5,-,N/A,,Overcast,200,2012-10-04 04:15:00
11:35 PM,59.0,56.5,91,30.04,7.0,SW,3.5,-,N/A,,Overcast,230,2012-10-04 04:35:00
11:55 PM,59.0,56.5,91,30.04,7.0,SSW,4.6,-,N/A,,Overcast,200,2012-10-04 04:55:00